Location: ??????
(56.0120°N, 39.1740°E)
Time: 15:14:00
(UTC+00:00)

Daily predictions for brighter satellites

Satellite Brightness Start Highest point End
(mag) Time Altitude Azimuth Time Altitude Azimuth Time Altitude Azimuth
Cosmos 2369 Rocket 3.7 17:00:32 10° NNW 17:05:07 25° NNE 17:09:41 10° E
Feng Yun 1-1 Rocket 4.3 17:03:16 10° SSE 17:08:49 83° ENE 17:14:18 10° NNW
CSL-04 Rocket 4.1 17:03:31 10° S 17:09:04 72° WSW 17:14:39 10° NNW
Cosmos 372 Rocket 4.3 17:05:13 10° SW 17:10:28 76° WNW 17:15:44 10° NNE
Meteor 1-21 Rocket 4.4 17:05:32 10° N 17:11:05 58° ENE 17:16:40 10° SSE
Cosmos 2074 Rocket 4.3 17:06:05 10° SSW 17:12:20 77° WNW 17:18:39 10° N
COBE Rocket 4.3 17:09:01 10° N 17:13:56 72° WNW 17:18:57 10° SSW
MOS 1 4.3 17:08:40 10° SSE 17:14:18 81° ENE 17:20:00 10° NNW
Cosmos 1898 Rocket 3.6 17:09:04 10° SSW 17:14:18 88° WNW 17:19:33 10° NNE
NOSS 2-1 (E) 3.8 17:11:40 10° NW 17:14:34 37° NNE 17:17:51 10° E
Cosmos 2278 Rocket 2.3 17:11:14 10° NNW 17:16:58 77° NE 17:22:39 10° SE
NOSS 2-1 (C) 3.6 17:14:24 10° NW 17:17:18 41° NNE 17:20:41 10° E
NOSS 2-1 (D) 3.5 17:14:58 10° NW 17:17:54 45° NNE 17:21:21 10° ESE
CZ-4B R/B 3.3 17:13:17 10° SSE 17:18:50 78° ENE 17:24:31 10° NNW
CZ-4B DEB 4.4 17:13:42 10° SSE 17:19:11 82° WSW 17:24:43 10° NNW
COSMOS 2428 3.2 17:14:40 10° S 17:19:54 38° ESE 17:25:10 10° NE
USA 234 3.5 17:13:41 10° ENE 17:19:59 47° SE 17:26:17 10° SW
SL-8 Rocket 4.3 17:15:58 10° SSE 17:21:56 50° E 17:28:00 10° NNE
BREEZE-M DEB (TANK) 3.8 17:20:34 10° SSW 17:22:25 19° SSE 17:25:07 10° ESE
Cosmos 1703 Rocket 4.4 17:18:42 10° NNW 17:22:55 52° W 17:27:05 10° S
BREEZE-M DEB (TANK) 3.3 17:21:27 10° SW 17:23:19 21° S 17:25:12 12° ESE
Cosmos 1680 Rocket 4.3 17:20:09 10° NW 17:25:13 53° WSW 17:30:15 10° S
Cosmos 1378 Rocket 4.3 17:22:33 10° N 17:26:40 36° ENE 17:30:36 11° SE
USA 238 DEB 4.0 17:19:38 10° NW 17:26:50 89° SW 17:34:38 11° SE
USA 238 4.0 17:19:49 10° NW 17:27:00 89° SW 17:34:48 11° SE
Cosmos 1943 Rocket 2.3 17:22:58 10° NW 17:28:41 81° WSW 17:34:21 10° SSE
ADEOS 3.6 17:24:22 10° SSE 17:29:35 87° ENE 17:34:51 10° NNW
Cosmos 1470 Rocket 4.3 17:25:31 10° SSW 17:29:49 57° WNW 17:34:08 10° N
PAYLOAD B 4.4 17:25:30 10° SSE 17:30:59 77° WSW 17:36:32 10° NNW
Cosmos 1937 Rocket 3.6 17:25:43 10° SSW 17:31:01 86° WNW 17:36:21 10° NNE
Cosmos 2333 Rocket 3.5 17:27:33 10° WSW 17:32:59 45° NW 17:38:27 10° NNE
IRS-1A Rocket 4.3 17:27:39 10° SSE 17:33:13 77° ENE 17:38:57 10° NNW
Cosmos 2366 rocket 4.1 17:27:58 10° SSE 17:33:55 54° E 17:39:53 10° NNE
Cosmos 1933 Rocket 3.5 17:32:48 10° S 17:37:11 86° E 17:41:38 10° NNE
Cosmos 2327 Rocket 4.5 17:31:01 10° S 17:37:12 77° E 17:43:32 10° NNE
COSMOS 2455 4.4 17:33:24 10° NW 17:38:39 30° N 17:43:55 10° ENE
Terra 2.0 17:37:40 10° S 17:42:21 75° WSW 17:47:05 10° NNW
In-Cosmos 22 Rocket 4.4 17:38:42 10° NNW 17:44:01 67° W 17:49:16 10° S
Aureole 3 3.8 17:43:42 10° N 17:47:49 60° ENE 17:52:30 12° SSE
Cosmos 1733 Rocket 3.6 17:44:07 10° SSE 17:48:09 38° E 17:52:14 10° NNE
SPOT 3 Rocket 4.0 17:44:39 13° SE 17:48:59 47° ENE 17:53:57 10° N
SL-16 R/B 4.1 17:49:54 10° E 17:50:18 10° E 17:50:49 10° E
SKYMED 3 4.2 17:48:23 10° NNE 17:52:16 65° ESE 17:56:07 10° S
Helios 1A Rocket 2.8 17:49:33 10° N 17:52:46 61° WNW 17:55:57 10° SSW
Ariane Rocket 3.6 17:49:33 15° SE 17:53:23 41° ENE 17:58:06 10° N
Geosat 4.0 17:49:41 10° NE 17:54:39 59° ESE 17:59:35 10° SSW
SL-08 R/B 3.4 17:50:23 10° NNE 17:55:14 61° ESE 18:00:05 10° S
Lacrosse 5 rocket 0.7 17:54:48 10° SW 17:57:56 54° SSE 18:00:59 10° ENE
ERS-1 Rocket 3.7 17:53:43 10° S 17:58:36 52° W 18:03:30 10° NNW
Cosmos 614 Rocket 4.0 17:53:52 10° NNW 17:59:06 79° ENE 18:03:13 16° SSE
Cosmos 2360 Rocket 3.5 17:55:04 10° WSW 18:00:27 44° NW 18:05:53 10° NNE
Spot 2 Rocket 3.5 17:56:27 10° SSE 18:01:30 87° WSW 18:06:33 10° NNW
Meteor 2-21 4.4 17:56:02 10° NNW 18:02:12 84° ENE 18:08:22 10° SSE
Cosmos 2218 Rocket 3.9 17:57:25 10° S 18:03:32 76° E 18:09:42 10° NNE
Meteor 1-11 4.2 17:58:54 10° NNW 18:04:30 87° ENE 18:09:39 12° SSE
Cosmos 1025 Rocket 3.3 18:01:44 10° N 18:05:52 48° ENE 18:08:31 20° SE
Cosmos 1959 Rocket 4.5 17:59:32 10° S 18:05:53 76° E 18:12:12 10° NNE
SeaSat 1 3.5 18:03:22 14° E 18:07:07 35° NE 18:11:33 10° NNW
Cosmos 1869 Rocket 3.9 18:02:55 10° SSW 18:07:17 70° WNW 18:11:44 10° N
ATLAS 3B R/B 3.7 18:00:35 10° WSW 18:08:19 59° NNW 18:16:07 10° ENE
ATLAS 5 CENTAUR R/B 3.0 18:05:35 10° WNW 18:08:26 25° N 18:11:42 10° ENE
Okean-O 2.7 18:05:33 12° S 18:09:37 77° WSW 18:14:03 10° NNW
Cosmos 2322 Rocket 3.8 18:05:28 10° WSW 18:10:41 38° NW 18:15:55 10° NNE
NOSS 3-4 (A) 3.7 18:07:32 10° S 18:12:21 36° ESE 18:17:41 10° ENE
Cosmos 1821 Rocket 4.0 18:06:26 10° S 18:12:36 67° E 18:18:54 10° NNE
NOSS 3-4 (C) 3.7 18:08:02 10° S 18:12:52 36° ESE 18:18:13 10° ENE
USA 186 1.9 18:15:49 23° SSW 18:16:49 40° W 18:18:56 10° NNW
CZ-4B R/B 3.4 18:13:47 19° SSE 18:17:12 69° ENE 18:21:57 10° NNW
USA 32 4.0 18:12:18 10° S 18:17:32 86° E 18:22:49 10° N
NOSS 3-1 (C) 4.0 18:13:13 10° NW 18:19:23 63° NNE 18:26:02 15° ESE
Cosmos 1400 Rocket 2.8 18:18:06 22° SSE 18:20:05 47° E 18:23:35 10° NNE
CZ-4 R/B 3.9 18:17:41 10° SW 18:20:19 18° W 18:22:56 10° NW
CZ-4B R/B 2.4 18:18:47 24° SSE 18:20:49 78° ENE 18:24:17 10° NNW
Helios 1B rocket 4.1 18:19:53 13° E 18:21:08 16° NE 18:23:19 10° NNE
SL-16 R/B 4.4 18:16:23 10° W 18:21:11 27° NNW 18:26:01 10° NNE
Cosmos 2237 Rocket 2.4 18:17:29 10° S 18:22:54 48° ESE 18:28:23 10° NE
Cosmos 1980 3.8 18:18:35 10° S 18:24:01 52° ESE 18:29:30 10° NE
ASTEX 1 3.3 18:21:31 16° S 18:25:29 85° E 18:30:27 10° N
ARIANE 6 FM1 Upper Stage 3.5 18:22:02 10° W 18:26:00 49° NNW 18:29:55 10° NE
CZ-2C R/B 2.1 18:25:11 37° SE 18:26:05 60° ENE 18:28:58 10° N
Cosmos 1000 Rocket 4.4 18:22:25 10° N 18:28:39 79° ENE 18:33:14 19° SSE
Okean O Rocket 2.3 18:25:01 12° S 18:29:00 51° W 18:33:15 10° NNW
Cosmos 2297 4.3 18:24:04 10° NNW 18:29:40 49° NE 18:33:21 21° ESE
Cosmos 2242 Rocket 4.2 18:25:18 10° NNW 18:29:42 55° W 18:33:39 12° S
USA 245 3.7 18:28:00 21° SSE 18:30:52 83° WSW 18:36:02 10° NNW
Cosmos 2322 3.9 18:25:44 10° SW 18:31:27 77° NW 18:37:15 10° NNE
Cosmos 1602 3.2 18:30:15 10° N 18:32:23 39° ENE 18:32:23 39° ENE
Cosmos 1975 Rocket 4.3 18:29:57 10° N 18:33:49 28° ENE 18:35:30 22° E
Cosmos 2219 Rocket 3.6 18:29:40 10° WSW 18:34:55 40° NW 18:40:14 10° NNE
USA 59 Rocket 0.0 18:33:53 10° WNW 18:36:58 47° SW 18:38:24 30° S
Cosmos 1346 Rocket 2.4 18:34:12 10° NNW 18:37:50 88° ENE 18:39:22 33° SSE
RESURS DK-1 2.9 18:42:09 32° ESE 18:42:10 32° ESE 18:45:44 10° NE
NOSS 0 Rocket 3.9 18:38:16 10° SSW 18:44:32 84° SE 18:50:48 10° NE
Cosmos 1674 Rocket 3.8 18:42:17 10° NNW 18:46:34 67° W 18:49:09 23° S
Cosmos 2369 Rocket 2.3 18:44:34 10° NNW 18:50:10 66° NE 18:53:07 28° SE
Cosmos 1862 4.5 18:47:47 10° N 18:50:49 24° ENE 18:51:23 23° E
Cosmos 1908 Rocket 3.7 18:51:54 35° SSE 18:53:21 51° E 18:57:34 10° NNE
Cosmos 405 Rocket 2.8 18:55:29 10° N 18:58:14 37° ENE 18:58:14 37° ENE
Cosmos 1125 Rocket 3.4 18:55:00 12° SSW 18:59:48 72° ESE 19:05:04 10° NNE
Cosmos 2278 Rocket 3.9 18:55:53 10° NW 19:00:31 26° WSW 19:05:01 11° SSW
Cosmos 1656 Rocket 3.8 18:56:32 10° NW 19:01:55 64° WSW 19:04:39 29° S
Cosmos 1782 Rocket 4.2 19:01:51 34° ESE 19:02:23 35° E 19:06:19 10° NNE
Cosmos 2263 4.4 18:57:21 10° NNW 19:02:58 64° NE 19:05:44 30° ESE
SJ 16-02 3.5 19:00:15 10° N 19:03:08 17° NE 19:05:32 12° ENE
NOSS 2-1 (E) 3.7 19:00:16 10° WNW 19:03:21 42° SW 19:03:59 37° SSW
USA 234 3.2 18:56:53 10° ENE 19:03:28 85° SSE 19:10:04 10° WSW
COSMOS 2428 3.4 18:58:20 10° SW 19:03:59 57° NW 19:09:41 10° NNE
IRS-1C Rocket 4.4 19:01:19 24° S 19:04:29 64° WSW 19:09:45 10° NNW
NOSS 2-1 (C) 3.9 19:03:04 10° WNW 19:06:04 36° SW 19:06:39 33° SSW
NOSS 2-1 (D) 4.1 19:03:32 10° WNW 19:06:29 32° SW 19:07:05 30° SSW
SL-08 R/B 4.4 19:02:36 21° S 19:06:48 78° E 19:12:56 10° NNE
Cosmos 1174 4.5 19:04:03 10° NW 19:07:28 36° NNE 19:08:24 30° ENE
Cosmos 1943 Rocket 4.3 19:07:44 10° WNW 19:11:36 19° W 19:15:26 10° SW
Meteor 2-8 Rocket 4.4 19:07:23 15° SSW 19:12:29 83° WNW 19:18:36 10° NNE
NOSS 3-1 (A) 4.1 19:06:30 10° NW 19:12:45 63° NNE 19:18:50 18° ESE
DNEPR-1 R/B 3.4 19:10:12 10° SW 19:14:25 89° SE 19:19:02 10° NE
Cosmos 2221 Rocket 3.9 19:10:14 10° NNW 19:14:34 59° W 19:16:28 31° SSW
Cosmos 921 Rocket 3.9 19:15:21 10° NNW 19:19:35 40° NE 19:20:52 32° E
Terra 4.4 19:18:23 10° WSW 19:20:43 14° W 19:23:04 10° NW
COSMOS 2455 3.4 19:19:55 10° NW 19:25:49 52° NE 19:29:24 24° ESE
Cosmos 1023 Rocket 4.5 19:22:09 10° NNW 19:27:18 71° ENE 19:28:59 42° SE
Cosmos 2150 Rocket 4.2 19:28:19 43° SE 19:29:18 49° ESE 19:34:19 10° NE
Ariane Rocket 3.9 19:29:37 23° SSW 19:32:17 41° W 19:37:04 10° NNW
SL-16 R/B 2.4 19:31:41 40° SSE 19:33:03 49° ESE 19:38:31 10° NE
SWAS 4.3 19:29:46 10° NW 19:33:51 76° NE 19:34:27 61° ESE
Lacrosse 5 rocket 0.9 19:31:21 10° W 19:34:17 68° NW 19:34:17 68° NW
Cosmos 2058 2.8 19:32:14 10° N 19:36:10 62° ENE 19:36:28 59° E
Cosmos 44 4.3 19:37:56 31° ESE 19:37:56 31° ESE 19:41:52 10° ENE
Cosmos 2346 Rocket 4.4 19:32:30 10° N 19:38:40 82° ENE 19:41:07 39° SSE
Cosmos 1315 Rocket 3.2 19:40:41 44° ENE 19:40:41 44° ENE 19:43:53 10° NNE
IKONOS-2 4.5 19:38:48 10° NNE 19:42:52 58° ESE 19:42:56 58° ESE
Cosmos 1300 Rocket 3.4 19:42:33 55° SSW 19:43:28 87° W 19:47:48 10° NNE
TSX-5 4.2 19:38:53 10° SW 19:43:37 68° NW 19:47:32 10° NE
SeaSat 1 2.5 19:42:58 46° S 19:44:17 66° WSW 19:49:12 10° NW
Helios 1A 2.9 19:40:36 10° NNE 19:44:31 58° E 19:44:31 58° E
Cosmos 1536 Rocket 4.4 19:40:47 10° N 19:44:45 34° ENE 19:45:19 33° E
Cosmos 1934 Rocket 4.1 19:42:07 25° SSW 19:46:01 76° WNW 19:52:16 10° N
Cosmos 1447 Rocket 4.4 19:43:25 10° N 19:49:47 85° E 19:52:09 41° SSE
ATLAS 5 CENTAUR R/B 2.4 19:47:47 10° NW 19:51:14 39° NNE 19:53:07 25° ENE
Cosmos 2084 Rocket 3.2 19:50:04 39° SW 19:51:33 89° SE 19:55:43 10° NE
Cosmos 1869 3.3 19:53:24 57° W 19:53:39 59° WNW 19:57:11 10° N
Helios 1B rocket 2.1 19:53:53 72° W 19:53:53 72° W 19:57:16 10° NNW
Meteor 2-3 Rocket 4.4 19:49:00 10° N 19:54:23 43° ENE 19:56:10 33° ESE
Cosmos 371 Rocket 3.9 19:50:55 10° NNW 19:55:37 48° NE 19:56:56 38° E
Cosmos 407 Rocket 3.7 19:51:24 10° NNW 19:56:33 61° NE 19:57:57 44° ESE
ATLAS 3B R/B 3.9 19:52:46 10° WNW 20:00:25 49° N 20:07:55 10° ENE
NOSS 3-4 (A) 3.4 19:57:20 10° WSW 20:02:47 73° NNW 20:09:03 10° NE
Cosmos 1140 Rocket 3.4 19:58:00 10° NNW 20:03:10 73° WSW 20:04:15 54° S
NOSS 3-4 (C) 3.4 19:57:49 10° WSW 20:03:17 73° NNW 20:09:35 10° NE
ARIANE 6 FM1 Upper Stage 4.2 20:01:54 10° WNW 20:05:38 34° N 20:09:19 10° ENE
Cosmos 2237 Rocket 3.2 20:01:32 10° WSW 20:07:03 48° NW 20:12:35 10° NNE
CZ-2C R/B 4.3 20:03:00 10° NNE 20:06:55 39° E 20:06:55 39° E
NOSS 3-1 (C) 4.0 20:03:47 10° NW 20:10:23 60° SW 20:13:20 39° SSE
Cosmos 1975 Rocket 3.6 20:07:28 10° NNW 20:11:46 48° W 20:12:31 43° SW
Cosmos 2285 Rocket 4.0 20:10:28 30° SSW 20:13:51 87° WNW 20:20:15 10° NNE
Cosmos 2297 4.3 20:08:23 10° NW 20:13:52 47° WSW 20:15:15 39° SSW
Cosmos 1356 Rocket 3.3 20:15:18 77° ENE 20:15:18 77° ENE 20:19:12 10° NNE
Okean 1 Rocket 4.4 20:16:43 27° E 20:16:43 27° E 20:20:01 10° NNE
ALOS 2 2.6 20:17:13 61° E 20:17:36 65° ENE 20:21:58 10° N
RESURS DK-1 3.3 20:17:16 22° WSW 20:19:26 43° NW 20:23:16 10° NNE
Cosmos 1605 Rocket 4.0 20:17:09 37° SSW 20:19:44 74° WNW 20:25:53 10° N
Cosmos 2298 Rocket 4.0 20:20:41 42° SW 20:22:33 80° WNW 20:27:55 10° NNE
Cosmos 1656 4.2 20:17:50 10° NNW 20:23:10 52° NE 20:25:13 34° ESE
Cosmos 1862 4.1 20:22:23 10° NNW 20:25:31 37° W 20:25:31 37° W
ARIANE 5 R/B 2.4 20:26:44 82° S 20:26:55 88° WSW 20:31:18 10° NNW
Cosmos 1818 4.0 20:27:17 10° NW 20:32:43 60° NNE 20:35:11 32° E
Spot 4 3.6 20:32:16 70° S 20:32:47 82° WSW 20:37:34 10° NNW
Cosmos 2369 Rocket 3.2 20:28:59 10° NW 20:33:51 31° WSW 20:34:53 29° SW
Cosmos 2173 Rocket 4.0 20:38:04 51° SSE 20:39:27 66° E 20:45:30 10° NNE
ACS3 Solar Sail 4.0 20:38:36 10° NE 20:40:38 12° ENE 20:42:40 10° E
SJ 16-02 1.2 20:37:41 10° NNW 20:42:00 74° ENE 20:42:01 74° ENE
USA 234 3.3 20:39:59 10° E 20:46:34 83° N 20:53:08 10° W
Cosmos 1190 Rocket 4.1 20:41:51 10° NNW 20:47:11 71° ENE 20:48:17 54° ESE
SAR-Lupe-2 4.5 20:49:00 43° NW 20:49:00 43° NW 20:51:36 10° NNW
Cosmos 2100 Rocket 3.9 20:47:41 53° S 20:49:12 78° E 20:55:24 10° NNE
Cosmos 1697 Rocket 3.9 20:44:12 10° NNW 20:49:30 39° NE 20:53:12 18° E
MetOp-A 3.8 20:49:22 65° SE 20:50:02 78° ENE 20:55:09 10° NNW
Cosmos 2360 4.3 20:47:18 10° NNW 20:53:01 70° NE 20:54:45 45° ESE
Cosmos 1943 3.1 20:52:38 60° S 20:53:31 72° ESE 20:59:11 10° NE
Meteor 2-1 Rocket 4.4 20:53:51 53° SE 20:54:54 61° E 21:00:39 10° NNE
Cosmos 921 Rocket 4.0 20:53:34 10° NW 20:57:26 35° W 20:57:26 35° W
NOSS 3-1 (A) 4.0 20:57:09 10° NW 21:03:49 60° SW 21:06:11 44° S
CZ-2C R/B 2.9 21:03:23 50° SE 21:04:43 67° ENE 21:10:10 10° NNW
Cosmos 1980 Rocket 3.9 21:01:07 10° NNW 21:06:10 31° NNE 21:11:12 10° E
BREEZE-M R/B 4.4 20:57:50 10° WSW 21:06:22 53° S 21:11:54 10° E
Cosmos 332 Rocket 4.1 21:06:41 10° NNW 21:11:30 60° ENE 21:12:20 51° E
COSMOS 2455 3.0 21:06:00 10° NW 21:11:52 54° WSW 21:12:30 51° SW
Cosmos 304 Rocket 4.2 21:07:33 10° NW 21:11:56 46° WSW 21:11:56 46° WSW
Cosmos 2228 4.2 21:15:35 32° E 21:15:35 32° E 21:19:02 10° NNE
SL-16 R/B 3.1 21:13:28 19° WSW 21:17:15 47° NW 21:22:45 10° NNE
Cosmos 44 3.6 21:16:10 41° WSW 21:17:58 72° NW 21:23:23 10° NE
Cosmos 2251 Rocket 3.4 21:13:28 10° NNW 21:18:47 71° WSW 21:19:17 66° SSW
Cosmos 968 Rocket 4.0 21:14:25 10° NNW 21:19:32 54° NE 21:21:08 39° ESE
Cosmos 676 Rocket 4.0 21:14:14 10° NNW 21:19:34 79° ENE 21:20:32 60° SE
Cosmos 1420 Rocket 4.2 21:20:22 52° ESE 21:20:34 52° ESE 21:25:42 10° NE
Cosmos 1954 Rocket 3.8 21:16:39 10° NNW 21:21:56 81° WSW 21:22:29 71° S
Cosmos 1864 Rocket 4.4 21:23:06 53° SSW 21:24:45 87° WNW 21:31:09 10° NNE
Cosmos 2151 Rocket 3.9 21:27:43 53° W 21:27:55 54° WNW 21:32:16 10° N
SL-08 R/B 4.4 21:29:44 55° S 21:31:10 80° E 21:37:23 10° NNE
ATLAS 5 CENTAUR R/B 2.2 21:29:37 10° WNW 21:32:15 41° WNW 21:32:15 41° WNW
Cosmos 1725 Rocket 4.0 21:33:54 52° SSW 21:35:36 82° WNW 21:41:59 10° N
Cosmos 371 Rocket 4.3 21:31:22 10° NW 21:35:22 34° W 21:35:22 34° W
CZ-2C R/B 2.9 21:31:15 10° NNE 21:36:16 73° ESE 21:36:52 65° SSE
Cosmos 1802 Rocket 4.0 21:35:00 50° SSW 21:36:47 76° WNW 21:43:07 10° N
Cosmos 2056 Rocket 4.1 21:36:55 43° ESE 21:37:20 44° ESE 21:42:27 10° NE
Okean 2 Rocket 3.4 21:37:25 56° W 21:37:34 56° WNW 21:41:58 10° N
Meteor 2-3 Rocket 4.3 21:32:20 10° NNW 21:37:36 42° W 21:38:25 39° WSW
Cosmos 1782 3.7 21:40:09 38° NE 21:40:09 38° NE 21:42:40 10° NNE
Cosmos 1743 4.2 21:36:59 10° NNW 21:38:32 27° NNW 21:38:32 27° NNW
Cosmos 1626 Rocket 3.8 21:36:24 10° N 21:40:38 55° ENE 21:40:49 55° E
Cosmos 1892 Rocket 3.9 21:40:09 10° NNW 21:44:16 54° W 21:44:16 54° W
ARIANE 6 FM1 Upper Stage 3.1 21:41:15 10° NW 21:45:13 56° NNE 21:45:58 47° ENE
Cosmos 1624 Rocket 4.3 21:46:57 48° ESE 21:47:18 48° ESE 21:52:17 10° NE
ATLAS 3B R/B 3.2 21:44:23 10° NW 21:52:19 71° NNE 21:59:53 10° ESE
SL-16 R/B 4.5 21:48:47 10° NNW 21:53:22 24° NNE 21:57:56 10° ENE
Okean 1 Rocket 3.6 21:53:44 45° W 21:53:55 45° WNW 21:58:06 10° N
ALOS 2 4.3 21:54:36 21° W 21:54:36 21° W 21:57:43 10° NW
Cosmos 1833 Rocket 3.7 21:54:11 30° ESE 21:54:53 31° ESE 21:59:45 10° NE
Cosmos 2233 Rocket 3.9 21:53:29 52° SSW 21:55:11 84° WNW 22:01:31 10° N
USA 281 3.4 21:54:56 24° SE 21:59:09 69° NE 22:05:42 10° NNW
USA 229 DEB 3.9 21:53:31 10° NW 22:00:43 84° NE 22:08:50 10° SE
USA 229 3.9 21:53:34 10° NW 22:00:47 83° NE 22:08:54 10° SE
PSLV R/B 4.4 21:57:12 10° N 22:01:08 38° WNW 22:01:30 38° WNW
Sich 1 Rocket 4.3 22:02:13 42° W 22:02:33 42° WNW 22:06:46 10° N
Meteor 1-27 4.2 22:04:31 56° SSW 22:05:50 82° WNW 22:11:39 10° NNE
Cosmos 1656 4.2 22:01:39 10° NW 22:06:36 40° WSW 22:06:36 40° WSW
Meteor 1-20 Rocket 4.1 22:03:45 10° NNW 22:09:16 78° ENE 22:10:42 50° SSE
ATLAS 2AS CENTAUR R/B 3.6 22:08:25 30° SE 22:09:50 33° ESE 22:15:46 10° ENE
Cosmos 2151 2.9 22:06:47 10° N 22:10:58 74° ENE 22:11:02 74° E
Cosmos 2016 Rocket 4.4 22:10:46 39° SW 22:12:52 54° WNW 22:19:07 10° N
Cosmos 1455 Rocket 3.3 22:12:41 54° W 22:12:54 54° WNW 22:17:16 10° N
Landsat 5 3.4 22:09:13 10° NNE 22:13:25 77° WNW 22:13:28 76° W
ARGOS Delta rocket 4.3 22:09:37 10° N 22:13:48 42° WNW 22:14:19 40° W
Cosmos 1818 4.0 22:11:01 10° NW 22:15:46 43° WSW 22:15:46 43° WSW
Cosmos 2061 Rocket 4.0 22:14:37 48° SW 22:16:24 72° WNW 22:22:37 10° N
DELTA 2 DEB (DPAF) 3.9 22:13:21 10° NNE 22:16:28 64° NNE 22:16:28 64° NNE
Nadezhda 4 Rocket 4.1 22:10:50 10° N 22:17:04 71° ENE 22:19:34 38° SSE
Aureole 3 Rocket 3.0 22:17:35 73° SW 22:17:58 82° WNW 22:23:34 10° NNE
Cosmos 292 Rocket 3.6 22:13:22 10° NNW 22:18:11 74° WSW 22:18:29 71° SSW
Cosmos 1464 Rocket 4.4 22:16:22 36° SE 22:18:34 52° E 22:24:30 10° NNE
Cosmos 1371 Rocket 3.9 22:18:24 62° S 22:19:17 79° ESE 22:24:36 10° NNE
SJ 16-02 3.3 22:16:39 10° NW 22:18:30 17° WNW 22:18:30 17° WNW
CZ-4C R/B 3.9 22:16:27 10° NNE 22:18:46 43° N 22:18:46 43° N
Cosmos 1544 Rocket 3.7 22:19:57 60° ESE 22:20:17 63° E 22:24:40 10° NNE
Cosmos 1758 Rocket 3.4 22:18:09 10° NNW 22:22:20 70° W 22:22:20 70° W
Cosmos 1805 4.0 22:21:04 10° N 22:23:57 38° ENE 22:23:57 38° ENE
ACS3 Solar Sail 2.2 22:18:37 10° NNE 22:24:29 52° E 22:26:41 35° SSE
Cosmos 1603 4.0 22:23:25 40° WSW 22:25:21 63° NW 22:31:03 10° NNE
Cosmos 1741 Rocket 3.9 22:23:17 10° NNW 22:28:37 81° WSW 22:29:50 54° SSE
USA 234 3.1 22:23:11 10° ESE 22:29:44 73° SSW 22:36:19 10° WNW
Cosmos 1697 Rocket 2.6 22:28:13 10° NW 22:33:48 63° WSW 22:34:53 52° SSW
Meteor 2-10 4.4 22:32:29 10° N 22:37:48 64° ENE 22:40:25 31° SE
Cosmos 1943 4.4 22:34:22 18° W 22:38:00 36° NW 22:43:14 10° NNE
Cosmos 1452 Rocket 4.3 22:37:06 34° SE 22:38:25 40° ESE 22:43:17 10° NE
Cosmos 1513 Rocket 4.5 22:40:26 44° SSW 22:42:40 85° W 22:49:05 10° N
IDEFIX/ARIANE 42P 3.4 22:40:09 10° NNE 22:45:03 41° E 22:46:59 29° SE
Cosmos 2369 4.3 22:39:37 10° NNW 22:45:15 57° NE 22:50:52 10° SE
CZ-2C R/B 3.8 22:44:49 27° WSW 22:45:22 28° W 22:50:04 10° NNW
Cosmos 2026 Rocket 4.1 22:43:37 10° N 22:49:49 72° ENE 22:53:28 27° SSE
Cosmos 1980 Rocket 2.1 22:45:06 10° NW 22:50:51 89° WSW 22:54:16 26° SSE
Cosmos 2333 Rocket 3.8 22:45:54 10° NNW 22:51:05 35° NE 22:56:16 10° ESE
Cosmos 1825 Rocket 3.5 22:47:07 10° N 22:51:27 76° ENE 22:52:21 54° SE
Cosmos 2228 3.8 22:51:49 36° W 22:52:12 36° WNW 22:56:07 10° N
Cosmos 1092 Rocket 4.2 22:46:49 10° N 22:52:59 66° ENE 22:56:55 23° SSE
Cosmos 1437 Rocket 3.1 22:53:42 47° E 22:53:42 47° E 22:56:57 10° NNE
Cosmos 1602 Rocket 3.5 22:49:39 10° NNW 22:53:55 59° W 22:54:05 58° WSW
Cosmos 1076 Rocket 3.9 22:50:20 10° N 22:54:39 61° ENE 22:56:04 39° SE
Cosmos 968 Rocket 4.3 22:56:25 10° NW 23:01:01 33° WSW 23:01:01 33° WSW
Spot 1 3.7 22:57:16 10° NNE 23:01:20 86° WNW 23:01:50 68° SSW
Resurs 1-4 Rocket 4.2 22:58:37 10° NE 23:02:35 21° E 23:06:32 10° SE
SL-16 R/B 4.4 22:58:28 10° WNW 23:02:45 21° NNW 23:07:03 10° NNE
Okean 1-7 Rocket 3.4 23:00:05 10° NNW 23:04:26 72° W 23:05:05 60° SSW
Meteor 1-25 Rocket 4.4 23:02:24 10° NNW 23:08:06 56° W 23:09:53 40° SSW
Cosmos 1782 4.4 23:14:04 19° WNW 23:14:10 19° WNW 23:16:44 10° NNW
H-2A R/B 3.8 23:11:22 11° SE 23:14:33 32° ENE 23:17:50 10° N
ADEOS Rocket 4.0 23:10:29 10° NNE 23:17:33 54° E 23:23:11 19° S
Cosmos 2360 Rocket 3.9 23:12:34 10° NNW 23:17:44 34° NE 23:22:53 10° E
Cosmos 2056 Rocket 4.3 23:17:08 29° WSW 23:19:25 45° NW 23:24:39 10° NNE
GP-B 3.0 23:16:40 10° N 23:21:03 81° W 23:22:13 48° SSW
Cosmos 2082 Rocket 3.5 23:18:10 19° SSE 23:21:17 32° ESE 23:26:17 10° NE
ARIANE 6 FM1 Upper Stage 4.2 23:20:23 10° WNW 23:21:54 21° WNW 23:21:54 21° WNW
Cosmos 2322 Rocket 3.7 23:22:50 10° NNW 23:28:07 39° NE 23:33:21 10° ESE
Cosmos 1634 Rocket 4.3 23:24:32 23° S 23:28:25 64° E 23:34:32 10° NNE
Cosmos 1302 Rocket 4.2 23:29:11 33° S 23:31:26 62° ESE 23:36:33 10° NNE
Cosmos 1627 Rocket 4.5 23:26:21 10° NNW 23:32:31 68° W 23:36:00 28° S
USA 267 3.6 23:26:52 10° ENE 23:33:15 51° SE 23:36:26 29° SSW
Cosmos 2058 Rocket 3.8 23:33:31 23° SSE 23:35:56 48° E 23:40:14 10° NNE
MOZ.5/SAFIR/RUBIN 5/SL-8 3.7 23:33:16 25° SSE 23:36:02 88° WSW 23:40:45 10° NNW
Cosmos 2237 4.2 23:30:50 10° NW 23:36:36 87° WSW 23:42:21 10° SSE
Cosmos 1536 3.0 23:33:24 10° N 23:37:04 62° ENE 23:38:59 26° SSE
Gbstr 26 Del rocket 3.1 23:38:00 42° SSE 23:38:00 42° SSE 23:41:26 10° E
Cosmos 1833 Rocket 2.8 23:35:50 32° SW 23:38:26 67° NW 23:44:04 10° NNE
Cosmos 1606 Rocket 3.6 23:37:08 42° SW 23:38:31 70° WNW 23:42:58 10° N
SL-16 R/B 2.7 23:32:56 10° NNW 23:38:35 61° NE 23:44:12 10° SE
Cosmos 1933 4.1 23:39:14 32° W 23:39:47 34° WNW 23:43:18 10° N
SL-4 R/B 2.3 23:42:00 40° S 23:42:03 40° S 23:45:40 10° E
ATLAS 3B R/B 3.1 23:35:30 10° NW 23:43:01 52° SW 23:50:09 10° SSE
FENGYUN 3A 3.7 23:37:46 10° NNE 23:43:15 81° ESE 23:46:15 28° SSW
Envisat 4.0 23:39:13 10° NNE 23:44:01 41° E 23:47:59 15° SSE
USA 281 3.8 23:41:47 29° SW 23:44:04 37° WSW 23:50:07 10° NW
Cosmos 1331 Rocket 4.2 23:41:51 32° SW 23:44:12 60° WNW 23:49:27 10° NNE
NOSS 3-4 (A) 4.4 23:40:22 10° WNW 23:46:22 54° NNE 23:53:26 10° E
Cosmos 1867 3.8 23:44:20 30° SSW 23:46:52 59° SE 23:52:15 10° NE
NOSS 3-4 (C) 4.4 23:40:52 10° WNW 23:46:52 54° NNE 23:53:57 10° E
Cosmos 1766 2.6 23:45:45 10° NNW 23:48:58 89° NE 23:49:49 46° SSE
CZ-4C R/B 3.3 23:47:13 18° SSE 23:49:31 27° ESE 23:53:58 10° ENE
NOAA 11 4.4 23:45:46 10° NNE 23:51:10 65° ESE 23:54:52 21° S
USA 229 DEB 4.4 23:44:34 10° WNW 23:51:22 40° WSW 23:58:48 10° S
USA 229 4.4 23:44:36 10° WNW 23:51:26 41° WSW 23:58:54 10° S
Cosmos 2219 Rocket 3.8 23:46:52 10° NNW 23:52:02 36° NE 23:57:14 10° ESE
Cosmos 2098 Rocket 4.1 23:49:40 29° SW 23:52:09 47° WNW 23:57:40 10° N
CZ-2D R/B 3.1 23:47:41 10° NNE 23:52:37 41° E 23:57:19 11° SSE
Cosmos 1110 Rocket 4.5 23:50:47 28° WSW 23:53:20 51° NW 23:58:31 10° NNE
